Location: Casilda
(33.0440°S, 61.1680°W)
Time: 19:24:37
(UTC-03:00)

ISS - Pass Details

Date: 22 November 2023
Orbit: 415 x 417 km, 51.6° (Epoch: 04 December)

Event Time Altitude Azimuth Distance (km) Brightness Sun altitude
Exits shadow 04:54:12 18° 303° (WNW) 1,103 -2.3 -11.3°
Maximum altitude 04:56:33 65° 223° (SW) 466 -3.6 -10.9°
Drops below altitude 10° 04:59:56 10° 140° (SE) 1,515 0.4 -10.3°
Sets 05:02:03 0° 136° (SE) 2,385 1.9 -9.9°
